Погода в Сиухе

Россия / Нижегородская область     55°46′20″N   43°08′42″E
темп.,
°C
ветер,
м/с
пор.,
м/с
влажн.,
%
обл.,
%
осадки,
мм/ч
давл.,
гПа
погр.,
м
16 июня, ср
ср1600:00+15в229536 0.0 101037
03:00+15в2297100 0.6 100926
06:00+17с239347 0.3 1008152
09:00+21ссз34786 0.6 1008539
12:00+25сз56592 0.1 10081408
15:00+22ссз57753 1.8 10091044
18:00+21ссз49786 1.0 1010801
21:00+17сз512695 1.1 1013413
17 июня, чт
чт1700:00+12ссз311800 0.0 1015234
03:00+10ссз38681 0.0 1018137
06:00+13ссз37700 0.0 1019195
09:00+18ссз46540 0.0 1020654
12:00+20ссз69433 0.0 10211437
15:00+21ссз58460 0.0 10221706
18:00+20ссз48603 0.0 10231202
21:00+14ссз35775 0.0 102493
18 июня, пт
пт1800:00+12ссз34800 0.0 102559
03:00+11ссз22830 0.0 102711
06:00+15сз12721 0.0 1027103
09:00+19ссз235880 0.0 1027601
12:00+22ссз245212 0.0 10271378
15:00+24ссз2447100 0.0 10261664
18:00+23сз126114 0.0 1025619
21:00+18ююз2275100 0.0 102612
19 июня, сб
сб1900:00+15юз348388 0.0 102672
03:00+14зюз22921 0.0 102736
06:00+18зюз26805 0.0 1027191
09:00+22з466588 0.0 1027597
12:00+26з46535 0.0 10261425
15:00+27з465025 0.0 10251684
18:00+26зюз36615 0.0 1024464
21:00+19зюз34815 0.0 102553
20 июня, вс
вс2000:00+17зюз23895 0.0 102546
03:00+16з23903 0.0 102658
06:00+19з25810 0.0 1026163
09:00+24з34600 0.0 1026632
12:00+27з33475 0.0 10251325
15:00+28зсз34448 0.0 10241455
18:00+26з25600 0.0 1023348
21:00+20зюз34780 0.0 102363